Voltar ao catálogo

STARLINK-3758

AtivoComunicaçõesVLEO
NORAD 52297·PAYLOAD·🇺🇸 United States

Lançado Apr 21, 2022 de Cape Canaveral Space Force Station

Loading…

Próximas Passagens (próximas 24 horas)

TLE

AtualizadoSource: CelesTrak SupGP

Época: Sep 14, 2026, 21:22 UTC

1 52297C 22041AN  26257.89076389 -.00017191  00000+0 -52173-3 0  2574
2 52297  53.1586 318.0896 0001213  79.0035 314.4789 15.33552211    16

Acompanhe STARLINK-3758 em tempo real com AllMySat

Download on the App Store